Time,TemperatureF,DewpointF,PressureIn,WindDirection,WindDirectionDegrees,WindSpeedMPH,WindSpeedGustMPH,Humidity,HourlyPrecipIn,Conditions,Clouds,dailyrainin,SolarRadiationWatts/m^2,SoftwareType,DateUTC
2013-06-17 00:00:00,55.3,50.9,30.13,West,271,0.0,2.0,85,0.00,,---,0.00,0.00,VWS V14.01,2013-06-17 07:00:00,
2013-06-17 00:01:00,55.2,50.8,30.13,West,271,0.0,1.0,85,0.00,,---,0.00,0.00,VWS V14.01,2013-06-17 07:01:00,
2013-06-17 00:06:00,55.0,50.6,30.13,West,271,0.0,1.0,85,0.00,,---,0.00,0.00,VWS V14.01,2013-06-17 07:06:00,
2013-06-17 00:10:00,54.7,50.3,30.13,West,271,0.0,1.0,85,0.00,,---,0.00,0.00,VWS V14.01,2013-06-17 07:10:00,
2013-06-17 00:11:00,54.7,50.6,30.13,West,271,0.0,0.0,86,0.00,,---,0.00,0.00,VWS V14.01,2013-06-17 07:11:00,
2013-06-17 00:16:00,54.4,50.3,30.13,West,271,0.0,1.0,86,0.00,,---,0.00,0.00,VWS V14.01,2013-06-17 07:16:00,
2013-06-17 00:20:00,54.3,50.5,30.13,West,271,1.0,1.0,87,0.00,,---,0.00,0.00,VWS V14.01,2013-06-17 07:20:00,
2013-06-17 00:21:00,54.3,50.5,30.13,West,269,1.0,2.0,87,0.00,,---,0.00,0.00,VWS V14.01,2013-06-17 07:21:00,
2013-06-17 00:26:00,54.3,50.5,30.13,West,269,0.0,2.0,87,0.00,,---,0.00,0.00,VWS V14.01,2013-06-17 07:26:00,
2013-06-17 00:30:00,54.2,50.7,30.13,West,269,0.0,2.0,88,0.00,,---,0.00,0.00,VWS V14.01,2013-06-17 07:30:00,
2013-06-17 00:31:00,54.2,50.7,30.13,West,269,0.0,0.0,88,0.00,,---,0.00,0.00,VWS V14.01,2013-06-17 07:31:00,
2013-06-17 00:36:00,54.0,50.5,30.13,West,263,0.0,3.0,88,0.00,,---,0.00,0.00,VWS V14.01,2013-06-17 07:36:00,
2013-06-17 00:40:00,53.9,50.4,30.13,WSW,255,1.0,4.0,88,0.00,,---,0.00,0.00,VWS V14.01,2013-06-17 07:40:00,
2013-06-17 00:41:00,53.9,50.4,30.13,SSW,198,2.0,2.0,88,0.00,,---,0.00,0.00,VWS V14.01,2013-06-17 07:41:00,
2013-06-17 00:46:00,53.7,50.5,30.13,South,187,3.0,4.0,89,0.00,,---,0.00,0.00,VWS V14.01,2013-06-17 07:46:00,
2013-06-17 00:50:00,53.6,50.4,30.13,South,187,0.0,4.0,89,0.00,,---,0.00,0.00,VWS V14.01,2013-06-17 07:50:00,
2013-06-17 00:51:00,53.6,50.4,30.13,South,187,2.0,2.0,89,0.00,,---,0.00,0.00,VWS V14.01,2013-06-17 07:51:00,
2013-06-17 00:56:00,53.5,50.3,30.13,South,187,0.0,2.0,89,0.00,,---,0.00,0.00,VWS V14.01,2013-06-17 07:56:00,
2013-06-17 01:00:00,53.4,50.2,30.13,South,187,0.0,2.0,89,0.00,,---,0.00,0.00,VWS V14.01,2013-06-17 08:00:00,
2013-06-17 01:01:00,53.4,50.2,30.13,South,187,0.0,1.0,89,0.00,,---,0.00,0.00,VWS V14.01,2013-06-17 08:01:00,
2013-06-17 01:06:00,53.2,50.0,30.13,South,187,0.0,2.0,89,0.00,,---,0.00,0.00,VWS V14.01,2013-06-17 08:06:00,
2013-06-17 01:10:00,53.1,50.0,30.12,SSW,209,0.0,5.0,89,0.00,,---,0.00,0.00,VWS V14.01,2013-06-17 08:10:00,
2013-06-17 01:11:00,53.1,50.0,30.13,SSW,209,0.0,1.0,89,0.00,,---,0.00,0.00,VWS V14.01,2013-06-17 08:11:00,
2013-06-17 01:16:00,53.0,49.8,30.12,SSW,209,0.0,1.0,89,0.00,,---,0.00,0.00,VWS V14.01,2013-06-17 08:16:00,
2013-06-17 01:20:00,52.9,49.8,30.12,SSW,209,0.0,1.0,89,0.00,,---,0.00,0.00,VWS V14.01,2013-06-17 08:20:00,
2013-06-17 01:21:00,52.9,49.8,30.12,SSW,209,0.0,1.0,89,0.00,,---,0.00,0.00,VWS V14.01,2013-06-17 08:21:00,
2013-06-17 01:26:00,52.7,49.8,30.13,SSW,209,2.0,2.0,90,0.00,,---,0.00,0.00,VWS V14.01,2013-06-17 08:26:00,
2013-06-17 01:30:00,52.5,49.7,30.12,SSW,209,1.0,4.0,90,0.00,,---,0.00,0.00,VWS V14.01,2013-06-17 08:30:00,
2013-06-17 01:31:00,52.5,49.7,30.12,SSW,209,0.0,3.0,90,0.00,,---,0.00,0.00,VWS V14.01,2013-06-17 08:31:00,
2013-06-17 01:36:00,52.4,49.6,30.12,SSW,203,0.0,5.0,90,0.00,,---,0.00,0.00,VWS V14.01,2013-06-17 08:36:00,
2013-06-17 01:40:00,52.2,49.4,30.12,SSW,203,0.0,5.0,90,0.00,,---,0.00,0.00,VWS V14.01,2013-06-17 08:40:00,
2013-06-17 01:41:00,52.2,49.4,30.12,SSW,203,0.0,2.0,90,0.00,,---,0.00,0.00,VWS V14.01,2013-06-17 08:41:00,
2013-06-17 01:46:00,52.1,49.6,30.12,SSW,203,0.0,3.0,91,0.00,,---,0.00,0.00,VWS V14.01,2013-06-17 08:46:00,
2013-06-17 01:50:00,52.0,49.5,30.12,SSW,203,0.0,3.0,91,0.00,,---,0.00,0.00,VWS V14.01,2013-06-17 08:50:00,
2013-06-17 01:51:00,52.0,49.2,30.12,SSW,203,0.0,0.0,90,0.00,,---,0.00,0.00,VWS V14.01,2013-06-17 08:51:00,
2013-06-17 01:56:00,51.9,49.4,30.12,SSW,203,0.0,3.0,91,0.00,,---,0.00,0.00,VWS V14.01,2013-06-17 08:56:00,
2013-06-17 02:00:00,51.9,49.4,30.12,SSW,202,1.0,3.0,91,0.00,,---,0.00,0.00,VWS V14.01,2013-06-17 09:00:00,
2013-06-17 02:01:00,51.9,49.4,30.12,SSW,202,2.0,2.0,91,0.00,,---,0.00,0.00,VWS V14.01,2013-06-17 09:01:00,
2013-06-17 02:06:00,51.8,49.3,30.12,SSW,202,2.0,2.0,91,0.00,,---,0.00,0.00,VWS V14.01,2013-06-17 09:06:00,
2013-06-17 02:10:00,51.8,49.3,30.12,SSW,202,0.0,3.0,91,0.00,,---,0.00,0.00,VWS V14.01,2013-06-17 09:10:00,
2013-06-17 02:11:00,51.8,49.3,30.12,SSW,202,0.0,0.0,91,0.00,,---,0.00,0.00,VWS V14.01,2013-06-17 09:11:00,
2013-06-17 02:16:00,51.7,49.2,30.12,SSW,202,0.0,0.0,91,0.00,,---,0.00,0.00,VWS V14.01,2013-06-17 09:16:00,
2013-06-17 02:20:00,51.7,49.2,30.12,SSW,202,0.0,0.0,91,0.00,,---,0.00,0.00,VWS V14.01,2013-06-17 09:20:00,
2013-06-17 02:21:00,51.7,49.2,30.12,SSW,202,0.0,0.0,91,0.00,,---,0.00,0.00,VWS V14.01,2013-06-17 09:21:00,
2013-06-17 02:26:00,51.5,49.0,30.12,SSW,202,0.0,0.0,91,0.00,,---,0.00,0.00,VWS V14.01,2013-06-17 09:26:00,
2013-06-17 02:30:00,51.5,49.3,30.12,SSW,202,0.0,0.0,92,0.00,,---,0.00,0.00,VWS V14.01,2013-06-17 09:30:00,
2013-06-17 02:31:00,51.4,49.2,30.12,SSW,202,0.0,0.0,92,0.00,,---,0.00,0.00,VWS V14.01,2013-06-17 09:31:00,
2013-06-17 02:36:00,51.2,49.0,30.12,SSW,202,0.0,0.0,92,0.00,,---,0.00,0.00,VWS V14.01,2013-06-17 09:36:00,
2013-06-17 02:40:00,51.1,48.9,30.12,SSW,202,0.0,0.0,92,0.00,,---,0.00,0.00,VWS V14.01,2013-06-17 09:40:00,
2013-06-17 02:41:00,51.0,48.8,30.12,SSW,202,0.0,0.0,92,0.00,,---,0.00,0.00,VWS V14.01,2013-06-17 09:41:00,
2013-06-17 02:46:00,50.8,48.6,30.12,SSW,202,0.0,0.0,92,0.00,,---,0.00,0.00,VWS V14.01,2013-06-17 09:46:00,
2013-06-17 02:50:00,50.5,48.3,30.12,SSW,202,0.0,0.0,92,0.00,,---,0.00,0.00,VWS V14.01,2013-06-17 09:50:00,
2013-06-17 02:51:00,50.5,48.3,30.12,SSW,202,0.0,0.0,92,0.00,,---,0.00,0.00,VWS V14.01,2013-06-17 09:51:00,
2013-06-17 02:56:00,50.0,47.8,30.12,SSW,202,0.0,0.0,92,0.00,,---,0.00,0.00,VWS V14.01,2013-06-17 09:56:00,
2013-06-17 03:00:00,49.7,47.5,30.12,SSW,202,0.0,0.0,92,0.00,,---,0.00,0.00,VWS V14.01,2013-06-17 10:00:00,
2013-06-17 03:01:00,49.6,47.4,30.12,SSW,202,0.0,0.0,92,0.00,,---,0.00,0.00,VWS V14.01,2013-06-17 10:01:00,
2013-06-17 03:06:00,49.4,47.2,30.12,SSW,202,0.0,0.0,92,0.00,,---,0.00,0.00,VWS V14.01,2013-06-17 10:06:00,
2013-06-17 03:10:00,49.2,47.0,30.12,SSW,202,0.0,0.0,92,0.00,,---,0.00,0.00,VWS V14.01,2013-06-17 10:10:00,
2013-06-17 03:11:00,49.2,47.3,30.12,SSW,202,0.0,0.0,93,0.00,,---,0.00,0.00,VWS V14.01,2013-06-17 10:11:00,
2013-06-17 03:16:00,49.1,47.2,30.12,SSW,202,0.0,0.0,93,0.00,,---,0.00,0.00,VWS V14.01,2013-06-17 10:16:00,
2013-06-17 03:20:00,49.0,47.1,30.12,SSW,202,0.0,0.0,93,0.00,,---,0.00,0.00,VWS V14.01,2013-06-17 10:20:00,
2013-06-17 03:21:00,49.0,47.1,30.12,SSW,202,0.0,0.0,93,0.00,,---,0.00,0.00,VWS V14.01,2013-06-17 10:21:00,
2013-06-17 03:26:00,48.7,46.8,30.11,SSW,202,0.0,1.0,93,0.00,,---,0.00,0.00,VWS V14.01,2013-06-17 10:26:00,
2013-06-17 03:30:00,48.5,46.9,30.11,SSW,202,0.0,1.0,94,0.00,,---,0.00,0.00,VWS V14.01,2013-06-17 10:30:00,
2013-06-17 03:31:00,48.5,48.0,30.11,SSW,202,0.0,0.0,98,0.00,,---,0.00,0.00,VWS V14.01,2013-06-17 10:31:00,
2013-06-17 03:36:00,48.4,46.8,30.11,SSW,202,0.0,0.0,94,0.00,,---,0.00,0.00,VWS V14.01,2013-06-17 10:36:00,
2013-06-17 03:40:00,48.3,46.7,30.11,SSW,202,0.0,0.0,94,0.00,,---,0.00,0.00,VWS V14.01,2013-06-17 10:40:00,
2013-06-17 03:41:00,48.3,46.7,30.11,SSW,202,0.0,0.0,94,0.00,,---,0.00,0.00,VWS V14.01,2013-06-17 10:41:00,
2013-06-17 03:46:00,48.2,46.6,30.11,SSW,202,0.0,0.0,94,0.00,,---,0.00,0.00,VWS V14.01,2013-06-17 10:46:00,
2013-06-17 03:50:00,48.3,46.7,30.11,SSW,202,0.0,0.0,94,0.00,,---,0.00,0.00,VWS V14.01,2013-06-17 10:50:00,
2013-06-17 03:51:00,48.2,46.6,30.11,SSW,202,0.0,0.0,94,0.00,,---,0.00,0.00,VWS V14.01,2013-06-17 10:51:00,
2013-06-17 03:56:00,48.3,46.9,30.11,SSW,202,0.0,0.0,95,0.00,,---,0.00,0.00,VWS V14.01,2013-06-17 10:56:00,
2013-06-17 04:00:00,48.2,46.8,30.10,SSW,202,0.0,0.0,95,0.00,,---,0.00,0.00,VWS V14.01,2013-06-17 11:00:00,
2013-06-17 04:01:00,48.2,46.8,30.10,SSW,202,0.0,0.0,95,0.00,,---,0.00,0.00,VWS V14.01,2013-06-17 11:01:00,
2013-06-17 04:06:00,48.1,46.7,30.11,SSW,202,0.0,0.0,95,0.00,,---,0.00,0.00,VWS V14.01,2013-06-17 11:06:00,
2013-06-17 04:10:00,47.9,46.3,30.10,SSW,202,0.0,0.0,94,0.00,,---,0.00,0.00,VWS V14.01,2013-06-17 11:10:00,
2013-06-17 04:11:00,47.9,46.5,30.10,SSW,202,0.0,0.0,95,0.00,,---,0.00,0.00,VWS V14.01,2013-06-17 11:11:00,
2013-06-17 04:16:00,47.8,46.4,30.10,SSW,202,0.0,0.0,95,0.00,,---,0.00,0.00,VWS V14.01,2013-06-17 11:16:00,
2013-06-17 04:20:00,47.9,46.5,30.10,SSW,202,0.0,0.0,95,0.00,,---,0.00,0.00,VWS V14.01,2013-06-17 11:20:00,
2013-06-17 04:21:00,47.9,46.5,30.10,SSW,202,0.0,0.0,95,0.00,,---,0.00,0.00,VWS V14.01,2013-06-17 11:21:00,
2013-06-17 04:26:00,47.9,46.5,30.10,SSW,202,0.0,0.0,95,0.00,,---,0.00,0.00,VWS V14.01,2013-06-17 11:26:00,
2013-06-17 04:30:00,47.6,46.2,30.10,SSW,202,0.0,1.0,95,0.00,,---,0.00,0.00,VWS V14.01,2013-06-17 11:30:00,
2013-06-17 04:31:00,47.6,46.2,30.10,SSW,202,0.0,0.0,95,0.00,,---,0.00,0.00,VWS V14.01,2013-06-17 11:31:00,
2013-06-17 04:36:00,47.3,45.9,30.10,SSW,202,0.0,0.0,95,0.00,,---,0.00,0.00,VWS V14.01,2013-06-17 11:36:00,
2013-06-17 04:40:00,47.3,45.9,30.10,SSW,202,0.0,1.0,95,0.00,,---,0.00,0.00,VWS V14.01,2013-06-17 11:40:00,
2013-06-17 04:41:00,47.3,45.9,30.10,SSW,202,0.0,0.0,95,0.00,,---,0.00,0.00,VWS V14.01,2013-06-17 11:41:00,
2013-06-17 04:46:00,47.2,45.8,30.09,SSW,202,0.0,0.0,95,0.00,,---,0.00,0.00,VWS V14.01,2013-06-17 11:46:00,
2013-06-17 04:50:00,47.1,45.7,30.09,SSW,202,0.0,0.0,95,0.00,,---,0.00,0.00,VWS V14.01,2013-06-17 11:50:00,
2013-06-17 04:51:00,47.1,45.7,30.09,SSW,202,0.0,0.0,95,0.00,,---,0.00,0.00,VWS V14.01,2013-06-17 11:51:00,
2013-06-17 04:56:00,47.0,45.7,30.09,SSW,202,0.0,0.0,95,0.00,,---,0.00,0.00,VWS V14.01,2013-06-17 11:56:00,
2013-06-17 05:00:00,46.8,45.5,30.10,SSW,202,0.0,0.0,95,0.00,,---,0.00,0.00,VWS V14.01,2013-06-17 12:00:00,
2013-06-17 05:01:00,46.8,45.5,30.09,SSW,202,0.0,0.0,95,0.00,,---,0.00,0.00,VWS V14.01,2013-06-17 12:01:00,
2013-06-17 05:06:00,46.8,45.5,30.10,SSW,202,0.0,2.0,95,0.00,,---,0.00,0.00,VWS V14.01,2013-06-17 12:06:00,
2013-06-17 05:10:00,46.7,45.3,30.10,SSW,202,0.0,2.0,95,0.00,,---,0.00,0.00,VWS V14.01,2013-06-17 12:10:00,
2013-06-17 05:11:00,46.7,45.3,30.09,SSW,202,0.0,0.0,95,0.00,,---,0.00,0.00,VWS V14.01,2013-06-17 12:11:00,
2013-06-17 05:16:00,46.9,45.8,30.10,SSW,202,0.0,0.0,96,0.00,,---,0.00,0.00,VWS V14.01,2013-06-17 12:16:00,
2013-06-17 05:20:00,47.0,45.9,30.10,SSW,202,0.0,0.0,96,0.00,,---,0.00,0.00,VWS V14.01,2013-06-17 12:20:00,
2013-06-17 05:21:00,47.0,45.9,30.10,SSW,202,0.0,0.0,96,0.00,,---,0.00,0.00,VWS V14.01,2013-06-17 12:21:00,
2013-06-17 05:26:00,47.0,45.9,30.10,SSW,202,0.0,0.0,96,0.00,,---,0.00,0.00,VWS V14.01,2013-06-17 12:26:00,
2013-06-17 05:30:00,46.9,45.8,30.10,SSW,202,0.0,0.0,96,0.00,,---,0.00,0.00,VWS V14.01,2013-06-17 12:30:00,
2013-06-17 05:31:00,46.9,45.8,30.10,SSW,202,0.0,0.0,96,0.00,,---,0.00,0.00,VWS V14.01,2013-06-17 12:31:00,
2013-06-17 05:36:00,46.9,45.8,30.10,SSW,202,0.0,0.0,96,0.00,,---,0.00,7.00,VWS V14.01,2013-06-17 12:36:00,
2013-06-17 05:40:00,47.0,45.9,30.10,SSW,202,0.0,0.0,96,0.00,,---,0.00,11.00,VWS V14.01,2013-06-17 12:40:00,
2013-06-17 05:41:00,47.0,45.9,30.10,SSW,202,0.0,0.0,96,0.00,,---,0.00,11.00,VWS V14.01,2013-06-17 12:41:00,
2013-06-17 05:46:00,47.0,45.9,30.09,SSW,202,0.0,0.0,96,0.00,,---,0.00,14.00,VWS V14.01,2013-06-17 12:46:00,
2013-06-17 05:50:00,47.0,45.9,30.09,SSW,202,0.0,0.0,96,0.00,,---,0.00,18.00,VWS V14.01,2013-06-17 12:50:00,
2013-06-17 05:51:00,47.0,45.9,30.09,SSW,202,0.0,0.0,96,0.00,,---,0.00,18.00,VWS V14.01,2013-06-17 12:51:00,
2013-06-17 05:56:00,47.0,45.9,30.09,SSW,202,0.0,0.0,96,0.00,,---,0.00,21.00,VWS V14.01,2013-06-17 12:56:00,
2013-06-17 06:00:00,47.1,46.0,30.09,SSW,202,0.0,0.0,96,0.00,,---,0.00,23.00,VWS V14.01,2013-06-17 13:00:00,
2013-06-17 06:01:00,47.1,46.0,30.10,SSW,202,0.0,0.0,96,0.00,,---,0.00,23.00,VWS V14.01,2013-06-17 13:01:00,
2013-06-17 06:06:00,47.1,46.0,30.09,SSW,202,0.0,0.0,96,0.00,,---,0.00,28.00,VWS V14.01,2013-06-17 13:06:00,
2013-06-17 06:10:00,47.2,46.1,30.09,SSW,202,0.0,0.0,96,0.00,,---,0.00,32.00,VWS V14.01,2013-06-17 13:10:00,
2013-06-17 06:11:00,47.2,46.1,30.09,SSW,202,0.0,0.0,96,0.00,,---,0.00,33.00,VWS V14.01,2013-06-17 13:11:00,
2013-06-17 06:16:00,47.3,46.2,30.09,SSW,202,0.0,0.0,96,0.00,,---,0.00,39.00,VWS V14.01,2013-06-17 13:16:00,
2013-06-17 06:20:00,47.3,46.2,30.09,SSW,202,0.0,0.0,96,0.00,,---,0.00,40.00,VWS V14.01,2013-06-17 13:20:00,
2013-06-17 06:21:00,47.3,46.2,30.09,SSW,202,0.0,0.0,96,0.00,,---,0.00,40.00,VWS V14.01,2013-06-17 13:21:00,
2013-06-17 06:26:00,47.5,46.4,30.09,SSW,202,0.0,0.0,96,0.00,,---,0.00,47.00,VWS V14.01,2013-06-17 13:26:00,
2013-06-17 06:30:00,47.7,46.6,30.09,SSW,202,0.0,0.0,96,0.00,,---,0.00,47.00,VWS V14.01,2013-06-17 13:30:00,
2013-06-17 06:31:00,47.8,46.7,30.09,SSW,202,0.0,0.0,96,0.00,,---,0.00,47.00,VWS V14.01,2013-06-17 13:31:00,
2013-06-17 06:36:00,47.9,47.1,30.09,SSW,202,0.0,0.0,97,0.00,,---,0.00,37.00,VWS V14.01,2013-06-17 13:36:00,
2013-06-17 06:40:00,48.1,47.3,30.09,SSW,202,0.0,0.0,97,0.00,,---,0.00,35.00,VWS V14.01,2013-06-17 13:40:00,
2013-06-17 06:41:00,48.2,47.4,30.09,SSW,202,0.0,0.0,97,0.00,,---,0.00,37.00,VWS V14.01,2013-06-17 13:41:00,
2013-06-17 06:46:00,48.4,47.6,30.09,SSW,202,0.0,0.0,97,0.00,,---,0.00,58.00,VWS V14.01,2013-06-17 13:46:00,
2013-06-17 06:50:00,48.5,47.7,30.09,SSW,202,0.0,0.0,97,0.00,,---,0.00,65.00,VWS V14.01,2013-06-17 13:50:00,
2013-06-17 06:51:00,48.5,47.7,30.09,SSW,202,0.0,0.0,97,0.00,,---,0.00,65.00,VWS V14.01,2013-06-17 13:51:00,
2013-06-17 06:56:00,48.7,47.9,30.09,SSW,202,0.0,0.0,97,0.00,,---,0.00,69.00,VWS V14.01,2013-06-17 13:56:00,
2013-06-17 07:00:00,48.8,48.0,30.09,SSW,202,0.0,0.0,97,0.00,,---,0.00,135.00,VWS V14.01,2013-06-17 14:00:00,
2013-06-17 07:01:00,48.9,48.1,30.09,SSW,202,0.0,0.0,97,0.00,,---,0.00,135.00,VWS V14.01,2013-06-17 14:01:00,
2013-06-17 07:06:00,49.1,48.3,30.09,SSW,202,0.0,0.0,97,0.00,,---,0.00,84.00,VWS V14.01,2013-06-17 14:06:00,
2013-06-17 07:10:00,49.3,48.5,30.09,SSW,202,0.0,0.0,97,0.00,,---,0.00,79.00,VWS V14.01,2013-06-17 14:10:00,
2013-06-17 07:11:00,49.3,48.5,30.09,SSW,202,0.0,0.0,97,0.00,,---,0.00,77.00,VWS V14.01,2013-06-17 14:11:00,
2013-06-17 07:16:00,49.5,48.7,30.09,SSW,202,0.0,0.0,97,0.00,,---,0.00,98.00,VWS V14.01,2013-06-17 14:16:00,
2013-06-17 07:20:00,49.7,48.9,30.09,SSW,202,0.0,0.0,97,0.00,,---,0.00,202.00,VWS V14.01,2013-06-17 14:20:00,
2013-06-17 07:21:00,49.7,48.9,30.09,SSW,202,0.0,0.0,97,0.00,,---,0.00,144.00,VWS V14.01,2013-06-17 14:21:00,
2013-06-17 07:26:00,50.0,49.2,30.09,SSW,202,0.0,0.0,97,0.00,,---,0.00,192.00,VWS V14.01,2013-06-17 14:26:00,
2013-06-17 07:30:00,50.4,49.6,30.09,SSW,202,0.0,0.0,97,0.00,,---,0.00,190.00,VWS V14.01,2013-06-17 14:30:00,
2013-06-17 07:31:00,50.4,49.6,30.09,SSW,202,0.0,0.0,97,0.00,,---,0.00,190.00,VWS V14.01,2013-06-17 14:31:00,
2013-06-17 07:36:00,51.4,50.6,30.09,SSW,202,0.0,0.0,97,0.00,,---,0.00,330.00,VWS V14.01,2013-06-17 14:36:00,
2013-06-17 07:40:00,52.2,51.4,30.09,SSW,202,0.0,1.0,97,0.00,,---,0.00,330.00,VWS V14.01,2013-06-17 14:40:00,
2013-06-17 07:41:00,52.3,51.5,30.09,SSW,202,0.0,0.0,97,0.00,,---,0.00,330.00,VWS V14.01,2013-06-17 14:41:00,
2013-06-17 07:46:00,53.2,52.4,30.09,SSW,202,0.0,2.0,97,0.00,,---,0.00,352.00,VWS V14.01,2013-06-17 14:46:00,
2013-06-17 07:50:00,53.9,53.1,30.09,SSW,202,0.0,2.0,97,0.00,,---,0.00,369.00,VWS V14.01,2013-06-17 14:50:00,
2013-06-17 07:51:00,54.0,53.2,30.09,SSW,202,0.0,0.0,97,0.00,,---,0.00,374.00,VWS V14.01,2013-06-17 14:51:00,
2013-06-17 07:56:00,54.5,53.4,30.09,South,175,0.0,3.0,96,0.00,,---,0.00,401.00,VWS V14.01,2013-06-17 14:56:00,
2013-06-17 08:00:00,54.9,52.9,30.09,South,178,3.0,5.0,93,0.00,,---,0.00,415.00,VWS V14.01,2013-06-17 15:00:00,
2013-06-17 08:01:00,54.9,52.9,30.09,South,178,3.0,3.0,93,0.00,,---,0.00,415.00,VWS V14.01,2013-06-17 15:01:00,
2013-06-17 08:06:00,55.2,52.6,30.09,SSW,192,3.0,6.0,91,0.00,,---,0.00,464.00,VWS V14.01,2013-06-17 15:06:00,
2013-06-17 08:10:00,55.4,52.5,30.09,SSW,201,5.0,6.0,90,0.00,,---,0.00,454.00,VWS V14.01,2013-06-17 15:10:00,
2013-06-17 08:11:00,55.4,52.5,30.09,SSW,200,2.0,5.0,90,0.00,,---,0.00,454.00,VWS V14.01,2013-06-17 15:11:00,
2013-06-17 08:16:00,55.8,52.6,30.09,SW,219,4.0,5.0,89,0.00,,---,0.00,452.00,VWS V14.01,2013-06-17 15:16:00,
2013-06-17 08:20:00,55.8,52.0,30.09,SSW,198,3.0,5.0,87,0.00,,---,0.00,457.00,VWS V14.01,2013-06-17 15:20:00,
2013-06-17 08:21:00,55.8,52.0,30.09,SSW,198,1.0,3.0,87,0.00,,---,0.00,454.00,VWS V14.01,2013-06-17 15:21:00,
2013-06-17 08:26:00,56.0,52.2,30.09,SSW,207,0.0,5.0,87,0.00,,---,0.00,466.00,VWS V14.01,2013-06-17 15:26:00,
2013-06-17 08:30:00,56.6,52.8,30.09,SSE,154,4.0,5.0,87,0.00,,---,0.00,489.00,VWS V14.01,2013-06-17 15:30:00,
2013-06-17 08:31:00,56.6,52.8,30.09,SSE,167,2.0,4.0,87,0.00,,---,0.00,489.00,VWS V14.01,2013-06-17 15:31:00,
2013-06-17 08:36:00,57.1,53.9,30.09,SSE,167,3.0,4.0,89,0.00,,---,0.00,524.00,VWS V14.01,2013-06-17 15:36:00,
2013-06-17 08:40:00,57.3,52.8,30.09,SE,143,2.0,6.0,85,0.00,,---,0.00,587.00,VWS V14.01,2013-06-17 15:40:00,
2013-06-17 08:41:00,57.3,52.8,30.09,SE,143,2.0,2.0,85,0.00,,---,0.00,587.00,VWS V14.01,2013-06-17 15:41:00,
2013-06-17 08:46:00,57.7,53.5,30.09,SSW,205,3.0,5.0,86,0.00,,---,0.00,492.00,VWS V14.01,2013-06-17 15:46:00,
2013-06-17 08:50:00,57.9,53.1,30.09,SSW,205,0.0,5.0,84,0.00,,---,0.00,459.00,VWS V14.01,2013-06-17 15:50:00,
2013-06-17 08:51:00,57.9,53.1,30.09,SSW,205,1.0,1.0,84,0.00,,---,0.00,508.00,VWS V14.01,2013-06-17 15:51:00,
2013-06-17 08:56:00,57.8,52.7,30.09,WSW,247,3.0,5.0,83,0.00,,---,0.00,529.00,VWS V14.01,2013-06-17 15:56:00,
2013-06-17 09:00:00,57.9,53.1,30.08,West,267,3.0,5.0,84,0.00,,---,0.00,501.00,VWS V14.01,2013-06-17 16:00:00,
2013-06-17 09:01:00,57.9,53.1,30.08,West,267,0.0,3.0,84,0.00,,---,0.00,501.00,VWS V14.01,2013-06-17 16:01:00,
2013-06-17 09:06:00,58.1,53.3,30.08,West,266,3.0,4.0,84,0.00,,---,0.00,552.00,VWS V14.01,2013-06-17 16:06:00,
2013-06-17 09:10:00,58.6,53.8,30.08,SSE,161,0.0,4.0,84,0.00,,---,0.00,606.00,VWS V14.01,2013-06-17 16:10:00,
2013-06-17 09:11:00,58.6,53.5,30.08,SSE,161,0.0,0.0,83,0.00,,---,0.00,606.00,VWS V14.01,2013-06-17 16:11:00,
2013-06-17 09:16:00,58.8,53.7,30.08,ESE,114,2.0,6.0,83,0.00,,---,0.00,615.00,VWS V14.01,2013-06-17 16:16:00,
2013-06-17 09:20:00,59.3,53.8,30.08,South,184,0.0,6.0,82,0.00,,---,0.00,626.00,VWS V14.01,2013-06-17 16:20:00,
2013-06-17 09:21:00,59.3,53.8,30.08,South,183,1.0,1.0,82,0.00,,---,0.00,626.00,VWS V14.01,2013-06-17 16:21:00,
2013-06-17 09:26:00,59.3,53.5,30.08,SE,137,4.0,5.0,81,0.00,,---,0.00,613.00,VWS V14.01,2013-06-17 16:26:00,
2013-06-17 09:30:00,59.7,53.9,30.08,SE,136,0.0,5.0,81,0.00,,---,0.00,652.00,VWS V14.01,2013-06-17 16:30:00,
2013-06-17 09:31:00,59.7,53.9,30.07,SE,136,0.0,0.0,81,0.00,,---,0.00,652.00,VWS V14.01,2013-06-17 16:31:00,
2013-06-17 09:36:00,59.9,53.0,30.07,SSW,212,3.0,7.0,78,0.00,,---,0.00,659.00,VWS V14.01,2013-06-17 16:36:00,
2013-06-17 09:40:00,59.8,53.3,30.07,South,175,0.0,7.0,79,0.00,,---,0.00,680.00,VWS V14.01,2013-06-17 16:40:00,
2013-06-17 09:41:00,59.9,53.4,30.07,South,175,0.0,0.0,79,0.00,,---,0.00,680.00,VWS V14.01,2013-06-17 16:41:00,
2013-06-17 09:46:00,60.0,53.8,30.07,SSW,198,2.0,5.0,80,0.00,,---,0.00,698.00,VWS V14.01,2013-06-17 16:46:00,
2013-06-17 09:50:00,60.2,53.7,30.07,South,173,3.0,6.0,79,0.00,,---,0.00,726.00,VWS V14.01,2013-06-17 16:50:00,
2013-06-17 09:51:00,60.2,53.7,30.07,South,185,2.0,3.0,79,0.00,,---,0.00,726.00,VWS V14.01,2013-06-17 16:51:00,
2013-06-17 09:56:00,60.6,54.1,30.06,ESE,119,3.0,5.0,79,0.00,,---,0.00,744.00,VWS V14.01,2013-06-17 16:56:00,
2013-06-17 10:00:00,61.1,54.9,30.06,SE,141,3.0,5.0,80,0.00,,---,0.00,802.00,VWS V14.01,2013-06-17 17:00:00,
2013-06-17 10:01:00,61.2,55.0,30.07,SE,141,2.0,3.0,80,0.00,,---,0.00,759.00,VWS V14.01,2013-06-17 17:01:00,
2013-06-17 10:06:00,61.4,53.8,30.06,SE,142,2.0,6.0,76,0.00,,---,0.00,671.00,VWS V14.01,2013-06-17 17:06:00,
2013-06-17 10:10:00,61.5,54.2,30.06,ESE,104,3.0,6.0,77,0.00,,---,0.00,617.00,VWS V14.01,2013-06-17 17:10:00,
2013-06-17 10:11:00,61.5,54.2,30.06,ESE,104,2.0,3.0,77,0.00,,---,0.00,619.00,VWS V14.01,2013-06-17 17:11:00,
2013-06-17 10:16:00,61.8,53.8,30.06,South,171,1.0,5.0,75,0.00,,---,0.00,591.00,VWS V14.01,2013-06-17 17:16:00,
2013-06-17 10:20:00,62.0,54.0,30.06,SSW,212,0.0,5.0,75,0.00,,---,0.00,504.00,VWS V14.01,2013-06-17 17:20:00,
2013-06-17 10:21:00,62.0,54.0,30.06,ESE,103,3.0,4.0,75,0.00,,---,0.00,504.00,VWS V14.01,2013-06-17 17:21:00,
2013-06-17 10:26:00,62.1,54.1,30.06,SE,134,0.0,6.0,75,0.00,,---,0.00,510.00,VWS V14.01,2013-06-17 17:26:00,
2013-06-17 10:30:00,62.3,53.9,30.06,SE,134,0.0,6.0,74,0.00,,---,0.00,452.00,VWS V14.01,2013-06-17 17:30:00,
2013-06-17 10:31:00,62.3,53.9,30.06,SE,134,0.0,0.0,74,0.00,,---,0.00,483.00,VWS V14.01,2013-06-17 17:31:00,
2013-06-17 10:36:00,62.5,54.1,30.06,WSW,253,3.0,5.0,74,0.00,,---,0.00,671.00,VWS V14.01,2013-06-17 17:36:00,
2013-06-17 10:40:00,62.4,53.3,30.05,SW,230,0.0,5.0,72,0.00,,---,0.00,592.00,VWS V14.01,2013-06-17 17:40:00,
2013-06-17 10:41:00,62.5,53.4,30.05,SW,230,0.0,0.0,72,0.00,,---,0.00,566.00,VWS V14.01,2013-06-17 17:41:00,
2013-06-17 10:46:00,62.8,54.0,30.05,SSW,200,0.0,6.0,73,0.00,,---,0.00,791.00,VWS V14.01,2013-06-17 17:46:00,
2013-06-17 10:50:00,63.4,54.2,30.05,ESE,119,0.0,6.0,72,0.00,,---,0.00,749.00,VWS V14.01,2013-06-17 17:50:00,
2013-06-17 10:51:00,63.5,54.7,30.05,ESE,119,3.0,3.0,73,0.00,,---,0.00,749.00,VWS V14.01,2013-06-17 17:51:00,
2013-06-17 10:56:00,63.9,53.9,30.05,WSW,239,3.0,3.0,70,0.00,,---,0.00,780.00,VWS V14.01,2013-06-17 17:56:00,
2013-06-17 11:00:00,63.7,54.1,30.05,NNW,327,1.0,4.0,71,0.00,,---,0.00,731.00,VWS V14.01,2013-06-17 18:00:00,
2013-06-17 11:01:00,63.7,54.1,30.05,NW,304,2.0,2.0,71,0.00,,---,0.00,731.00,VWS V14.01,2013-06-17 18:01:00,
2013-06-17 11:06:00,64.1,53.7,30.05,SSE,162,4.0,9.0,69,0.00,,---,0.00,745.00,VWS V14.01,2013-06-17 18:06:00,
2013-06-17 11:10:00,64.2,54.2,30.05,SSW,205,1.0,9.0,70,0.00,,---,0.00,728.00,VWS V14.01,2013-06-17 18:10:00,
2013-06-17 11:11:00,64.2,54.2,30.05,SW,225,3.0,3.0,70,0.00,,---,0.00,733.00,VWS V14.01,2013-06-17 18:11:00,
2013-06-17 11:16:00,64.3,53.5,30.05,WSW,252,0.0,5.0,68,0.00,,---,0.00,606.00,VWS V14.01,2013-06-17 18:16:00,
2013-06-17 11:20:00,64.7,54.7,30.04,WSW,244,6.0,6.0,70,0.00,,---,0.00,837.00,VWS V14.01,2013-06-17 18:20:00,
2013-06-17 11:21:00,64.8,54.8,30.04,West,270,4.0,6.0,70,0.00,,---,0.00,837.00,VWS V14.01,2013-06-17 18:21:00,
2013-06-17 11:26:00,65.4,53.3,30.05,SSW,202,0.0,7.0,65,0.00,,---,0.00,707.00,VWS V14.01,2013-06-17 18:26:00,
2013-06-17 11:30:00,65.5,53.4,30.04,SSE,163,0.0,7.0,65,0.00,,---,0.00,756.00,VWS V14.01,2013-06-17 18:30:00,
2013-06-17 11:31:00,65.5,53.4,30.04,SSE,167,0.0,1.0,65,0.00,,---,0.00,756.00,VWS V14.01,2013-06-17 18:31:00,
2013-06-17 11:36:00,66.1,54.4,30.04,SSW,209,2.0,5.0,66,0.00,,---,0.00,830.00,VWS V14.01,2013-06-17 18:36:00,
2013-06-17 11:40:00,66.4,53.9,30.04,South,175,0.0,5.0,64,0.00,,---,0.00,953.00,VWS V14.01,2013-06-17 18:40:00,
2013-06-17 11:41:00,66.5,54.0,30.04,South,175,0.0,0.0,64,0.00,,---,0.00,995.00,VWS V14.01,2013-06-17 18:41:00,
2013-06-17 11:46:00,67.0,52.2,30.04,WNW,299,3.0,6.0,59,0.00,,---,0.00,795.00,VWS V14.01,2013-06-17 18:46:00,
2013-06-17 11:50:00,66.9,51.7,30.04,South,186,0.0,6.0,58,0.00,,---,0.00,1055.00,VWS V14.01,2013-06-17 18:50:00,
2013-06-17 11:51:00,66.9,51.7,30.04,South,186,2.0,2.0,58,0.00,,---,0.00,1055.00,VWS V14.01,2013-06-17 18:51:00,
2013-06-17 11:56:00,67.0,53.1,30.04,SW,214,3.0,6.0,61,0.00,,---,0.00,1058.00,VWS V14.01,2013-06-17 18:56:00,
2013-06-17 12:00:00,66.8,52.0,30.04,South,174,2.0,7.0,59,0.00,,---,0.00,860.00,VWS V14.01,2013-06-17 19:00:00,
2013-06-17 12:01:00,66.9,52.6,30.04,South,174,0.0,1.0,60,0.00,,---,0.00,860.00,VWS V14.01,2013-06-17 19:01:00,
2013-06-17 12:06:00,67.1,52.8,30.03,SW,231,3.0,7.0,60,0.00,,---,0.00,976.00,VWS V14.01,2013-06-17 19:06:00,
2013-06-17 12:10:00,67.3,52.5,30.03,East,80,3.0,7.0,59,0.00,,---,0.00,1037.00,VWS V14.01,2013-06-17 19:10:00,
2013-06-17 12:11:00,67.3,52.5,30.03,East,81,2.0,3.0,59,0.00,,---,0.00,1037.00,VWS V14.01,2013-06-17 19:11:00,
2013-06-17 12:16:00,68.0,53.6,30.03,South,190,2.0,4.0,60,0.00,,---,0.00,1048.00,VWS V14.01,2013-06-17 19:16:00,
2013-06-17 12:20:00,68.2,53.3,30.03,South,190,0.0,4.0,59,0.00,,---,0.00,1009.00,VWS V14.01,2013-06-17 19:20:00,
2013-06-17 12:21:00,68.2,53.3,30.02,South,190,0.0,0.0,59,0.00,,---,0.00,1009.00,VWS V14.01,2013-06-17 19:21:00,
2013-06-17 12:26:00,68.7,53.3,30.02,SSE,147,4.0,5.0,58,0.00,,---,0.00,986.00,VWS V14.01,2013-06-17 19:26:00,
2013-06-17 12:30:00,69.1,51.8,30.02,SSE,153,1.0,5.0,54,0.00,,---,0.00,990.00,VWS V14.01,2013-06-17 19:30:00,
2013-06-17 12:31:00,69.1,51.8,30.02,SSE,153,0.0,1.0,54,0.00,,---,0.00,990.00,VWS V14.01,2013-06-17 19:31:00,
2013-06-17 12:36:00,69.7,54.8,30.02,WSW,251,2.0,7.0,59,0.00,,---,0.00,998.00,VWS V14.01,2013-06-17 19:36:00,
2013-06-17 12:40:00,69.5,52.6,30.02,SW,233,0.0,7.0,55,0.00,,---,0.00,1002.00,VWS V14.01,2013-06-17 19:40:00,
2013-06-17 12:41:00,69.5,52.6,30.02,SW,233,0.0,0.0,55,0.00,,---,0.00,1002.00,VWS V14.01,2013-06-17 19:41:00,
2013-06-17 12:46:00,69.8,54.4,30.01,SW,214,5.0,9.0,58,0.00,,---,0.00,1007.00,VWS V14.01,2013-06-17 19:46:00,
2013-06-17 12:50:00,69.9,53.0,30.01,South,182,2.0,9.0,55,0.00,,---,0.00,1085.00,VWS V14.01,2013-06-17 19:50:00,
2013-06-17 12:51:00,69.9,53.0,30.01,South,180,4.0,4.0,55,0.00,,---,0.00,1048.00,VWS V14.01,2013-06-17 19:51:00,
2013-06-17 12:56:00,70.1,53.2,30.01,SSW,211,5.0,7.0,55,0.00,,---,0.00,1025.00,VWS V14.01,2013-06-17 19:56:00,
2013-06-17 13:00:00,70.1,53.2,30.01,WSW,250,2.0,12.0,55,0.00,,---,0.00,1025.00,VWS V14.01,2013-06-17 20:00:00,
2013-06-17 13:01:00,70.1,52.7,30.01,West,270,5.0,5.0,54,0.00,,---,0.00,1025.00,VWS V14.01,2013-06-17 20:01:00,
2013-06-17 13:06:00,70.6,52.7,30.01,SW,217,4.0,9.0,53,0.00,,---,0.00,1023.00,VWS V14.01,2013-06-17 20:06:00,
2013-06-17 13:10:00,70.8,54.3,30.01,SSE,154,1.0,9.0,56,0.00,,---,0.00,981.00,VWS V14.01,2013-06-17 20:10:00,
2013-06-17 13:11:00,70.8,54.3,30.01,South,184,5.0,5.0,56,0.00,,---,0.00,981.00,VWS V14.01,2013-06-17 20:11:00,
2013-06-17 13:16:00,71.2,52.7,30.01,SE,137,4.0,7.0,52,0.00,,---,0.00,1004.00,VWS V14.01,2013-06-17 20:16:00,
2013-06-17 13:20:00,71.4,53.9,30.00,West,265,3.0,7.0,54,0.00,,---,0.00,997.00,VWS V14.01,2013-06-17 20:20:00,
2013-06-17 13:21:00,71.4,53.9,30.00,West,265,2.0,3.0,54,0.00,,---,0.00,997.00,VWS V14.01,2013-06-17 20:21:00,
2013-06-17 13:26:00,71.7,53.7,30.00,South,175,2.0,6.0,53,0.00,,---,0.00,991.00,VWS V14.01,2013-06-17 20:26:00,
2013-06-17 13:30:00,72.2,54.1,30.00,WSW,250,5.0,7.0,53,0.00,,---,0.00,991.00,VWS V14.01,2013-06-17 20:30:00,
2013-06-17 13:31:00,72.2,54.1,30.00,WSW,243,5.0,5.0,53,0.00,,---,0.00,991.00,VWS V14.01,2013-06-17 20:31:00,
2013-06-17 13:36:00,71.9,53.9,30.00,West,259,2.0,11.0,53,0.00,,---,0.00,991.00,VWS V14.01,2013-06-17 20:36:00,
2013-06-17 13:40:00,71.9,54.4,30.00,South,171,10.0,11.0,54,0.00,,---,0.00,984.00,VWS V14.01,2013-06-17 20:40:00,
2013-06-17 13:41:00,71.9,54.4,30.00,SSE,159,7.0,10.0,54,0.00,,---,0.00,984.00,VWS V14.01,2013-06-17 20:41:00,
2013-06-17 13:46:00,71.9,55.4,30.00,SW,230,1.0,10.0,56,0.00,,---,0.00,981.00,VWS V14.01,2013-06-17 20:46:00,
2013-06-17 13:50:00,72.7,53.5,30.00,South,186,2.0,11.0,51,0.00,,---,0.00,983.00,VWS V14.01,2013-06-17 20:50:00,
2013-06-17 13:51:00,72.7,53.5,30.00,South,182,4.0,4.0,51,0.00,,---,0.00,983.00,VWS V14.01,2013-06-17 20:51:00,
2013-06-17 13:56:00,73.2,54.5,30.00,SW,216,9.0,9.0,52,0.00,,---,0.00,986.00,VWS V14.01,2013-06-17 20:56:00,
2013-06-17 14:00:00,73.2,54.5,30.00,SSW,210,4.0,4.0,52,0.00,,---,0.00,981.00,VWS V14.01,2013-06-17 21:00:00,
2013-06-17 14:05:00,73.5,52.6,30.00,WSW,241,5.0,11.0,48,0.00,,---,0.00,979.00,VWS V14.01,2013-06-17 21:05:00,
2013-06-17 14:10:00,73.2,52.4,29.99,WNW,286,3.0,3.0,48,0.00,,---,0.00,891.00,VWS V14.01,2013-06-17 21:10:00,
2013-06-17 14:15:00,73.0,52.2,30.00,WSW,245,2.0,6.0,48,0.00,,---,0.00,979.00,VWS V14.01,2013-06-17 21:15:00,
2013-06-17 14:20:00,73.2,54.0,30.00,SW,221,4.0,5.0,51,0.00,,---,0.00,1016.00,VWS V14.01,2013-06-17 21:20:00,
2013-06-17 14:25:00,73.8,51.8,29.99,West,271,3.0,12.0,46,0.00,,---,0.00,979.00,VWS V14.01,2013-06-17 21:25:00,
2013-06-17 14:30:00,73.8,52.3,29.99,SW,230,3.0,3.0,47,0.00,,---,0.00,956.00,VWS V14.01,2013-06-17 21:30:00,
2013-06-17 14:35:00,73.9,52.4,29.99,SSE,166,0.0,11.0,47,0.00,,---,0.00,960.00,VWS V14.01,2013-06-17 21:35:00,
2013-06-17 14:40:00,74.0,53.7,29.99,South,185,4.0,11.0,49,0.00,,---,0.00,162.00,VWS V14.01,2013-06-17 21:40:00,
2013-06-17 14:45:00,73.6,52.7,29.98,South,187,3.0,10.0,48,0.00,,---,0.00,954.00,VWS V14.01,2013-06-17 21:45:00,
2013-06-17 14:50:00,74.1,52.0,29.98,SW,227,3.0,13.0,46,0.00,,---,0.00,951.00,VWS V14.01,2013-06-17 21:50:00,
2013-06-17 14:55:00,74.1,51.4,29.99,SSW,202,9.0,12.0,45,0.00,,---,0.00,1009.00,VWS V14.01,2013-06-17 21:55:00,
2013-06-17 15:00:00,73.7,51.7,29.98,SW,222,2.0,12.0,46,0.00,,---,0.00,1009.00,VWS V14.01,2013-06-17 22:00:00,
2013-06-17 15:05:00,73.9,53.0,29.98,SW,230,0.0,7.0,48,0.00,,---,0.00,267.00,VWS V14.01,2013-06-17 22:05:00,
2013-06-17 15:10:00,74.0,53.1,29.98,West,275,5.0,7.0,48,0.00,,---,0.00,983.00,VWS V14.01,2013-06-17 22:10:00,
2013-06-17 15:15:00,74.5,53.0,29.98,South,169,3.0,9.0,47,0.00,,---,0.00,937.00,VWS V14.01,2013-06-17 22:15:00,
2013-06-17 15:20:00,74.9,52.8,29.98,SW,221,6.0,10.0,46,0.00,,---,0.00,937.00,VWS V14.01,2013-06-17 22:20:00,
2013-06-17 15:25:00,74.7,52.0,29.98,SSW,207,4.0,12.0,45,0.00,,---,0.00,230.00,VWS V14.01,2013-06-17 22:25:00,
2013-06-17 15:30:00,74.4,52.9,29.98,SW,227,3.0,12.0,47,0.00,,---,0.00,195.00,VWS V14.01,2013-06-17 22:30:00,
2013-06-17 15:35:00,74.2,52.7,29.98,SW,220,0.0,8.0,47,0.00,,---,0.00,244.00,VWS V14.01,2013-06-17 22:35:00,
2013-06-17 15:40:00,73.8,51.8,29.97,South,179,7.0,9.0,46,0.00,,---,0.00,190.00,VWS V14.01,2013-06-17 22:40:00,
2013-06-17 15:45:00,73.5,52.6,29.97,SSW,206,0.0,7.0,48,0.00,,---,0.00,185.00,VWS V14.01,2013-06-17 22:45:00,
2013-06-17 15:50:00,73.6,52.7,29.97,SW,227,3.0,7.0,48,0.00,,---,0.00,446.00,VWS V14.01,2013-06-17 22:50:00,
2013-06-17 15:55:00,74.0,54.2,29.97,West,265,5.0,6.0,50,0.00,,---,0.00,916.00,VWS V14.01,2013-06-17 22:55:00,
2013-06-17 16:00:00,74.4,54.0,29.97,NNW,343,2.0,6.0,49,0.00,,---,0.00,867.00,VWS V14.01,2013-06-17 23:00:00,
2013-06-17 16:05:00,74.9,53.9,29.97,West,277,6.0,12.0,48,0.00,,---,0.00,872.00,VWS V14.01,2013-06-17 23:05:00,
2013-06-17 16:10:00,74.6,53.6,29.96,SW,215,4.0,12.0,48,0.00,,---,0.00,814.00,VWS V14.01,2013-06-17 23:10:00,
2013-06-17 16:15:00,74.5,54.7,29.96,NW,325,6.0,12.0,50,0.00,,---,0.00,788.00,VWS V14.01,2013-06-17 23:15:00,
2013-06-17 16:20:00,74.3,55.0,29.96,WSW,256,2.0,12.0,51,0.00,,---,0.00,765.00,VWS V14.01,2013-06-17 23:20:00,
2013-06-17 16:25:00,74.2,56.5,29.96,WNW,290,13.0,13.0,54,0.00,,---,0.00,735.00,VWS V14.01,2013-06-17 23:25:00,
2013-06-17 16:30:00,73.7,55.5,29.96,NNW,339,5.0,13.0,53,0.00,,---,0.00,729.00,VWS V14.01,2013-06-17 23:30:00,
2013-06-17 16:35:00,73.8,54.6,29.96,SW,217,6.0,13.0,51,0.00,,---,0.00,724.00,VWS V14.01,2013-06-17 23:35:00,
2013-06-17 16:40:00,74.0,54.2,29.97,SSW,213,3.0,13.0,50,0.00,,---,0.00,751.00,VWS V14.01,2013-06-17 23:40:00,
2013-06-17 16:45:00,73.7,53.9,29.97,West,270,9.0,11.0,50,0.00,,---,0.00,171.00,VWS V14.01,2013-06-17 23:45:00,
2013-06-17 16:50:00,73.0,52.7,29.96,West,278,5.0,13.0,49,0.00,,---,0.00,167.00,VWS V14.01,2013-06-17 23:50:00,
2013-06-17 16:55:00,72.8,53.6,29.96,South,187,3.0,7.0,51,0.00,,---,0.00,765.00,VWS V14.01,2013-06-17 23:55:00,
2013-06-17 17:00:00,72.9,54.3,29.96,WNW,300,11.0,13.0,52,0.00,,---,0.00,134.00,VWS V14.01,2013-06-18 00:00:00,
2013-06-17 17:05:00,71.9,54.4,29.97,WNW,286,6.0,12.0,54,0.00,,---,0.00,216.00,VWS V14.01,2013-06-18 00:05:00,
2013-06-17 17:10:00,71.6,54.1,29.96,West,259,4.0,12.0,54,0.00,,---,0.00,315.00,VWS V14.01,2013-06-18 00:10:00,
2013-06-17 17:15:00,71.6,54.1,29.97,WNW,302,10.0,14.0,54,0.00,,---,0.00,318.00,VWS V14.01,2013-06-18 00:15:00,
2013-06-17 17:20:00,72.4,54.3,29.97,WSW,240,9.0,14.0,53,0.00,,---,0.00,635.00,VWS V14.01,2013-06-18 00:20:00,
2013-06-17 17:25:00,72.5,53.9,29.97,WSW,251,11.0,19.0,52,0.00,,---,0.00,587.00,VWS V14.01,2013-06-18 00:25:00,
2013-06-17 17:30:00,72.2,53.6,29.97,WNW,283,6.0,19.0,52,0.00,,---,0.00,566.00,VWS V14.01,2013-06-18 00:30:00,
2013-06-17 17:35:00,72.2,54.7,29.97,West,280,11.0,14.0,54,0.00,,---,0.00,550.00,VWS V14.01,2013-06-18 00:35:00,
2013-06-17 17:40:00,71.9,53.9,29.97,West,270,4.0,14.0,53,0.00,,---,0.00,584.00,VWS V14.01,2013-06-18 00:40:00,
2013-06-17 17:45:00,71.6,54.6,29.97,West,271,6.0,13.0,55,0.00,,---,0.00,564.00,VWS V14.01,2013-06-18 00:45:00,
2013-06-17 17:50:00,71.1,54.1,29.98,West,279,7.0,13.0,55,0.00,,---,0.00,236.00,VWS V14.01,2013-06-18 00:50:00,
2013-06-17 17:55:00,70.5,53.1,29.97,NW,313,11.0,14.0,54,0.00,,---,0.00,204.00,VWS V14.01,2013-06-18 00:55:00,
2013-06-17 18:00:00,69.9,53.0,29.98,WNW,284,5.0,14.0,55,0.00,,---,0.00,86.00,VWS V14.01,2013-06-18 01:00:00,
2013-06-17 18:05:00,69.3,53.4,29.98,WNW,282,5.0,14.0,57,0.00,,---,0.00,128.00,VWS V14.01,2013-06-18 01:05:00,
2013-06-17 18:10:00,68.6,53.2,29.98,WNW,283,4.0,15.0,58,0.00,,---,0.00,137.00,VWS V14.01,2013-06-18 01:10:00,
2013-06-17 18:15:00,68.4,53.1,29.98,West,259,4.0,9.0,58,0.00,,---,0.00,169.00,VWS V14.01,2013-06-18 01:15:00,
2013-06-17 18:20:00,68.3,53.4,29.98,West,269,2.0,10.0,59,0.00,,---,0.00,144.00,VWS V14.01,2013-06-18 01:20:00,
2013-06-17 18:25:00,68.3,53.4,29.99,West,269,3.0,7.0,59,0.00,,---,0.00,135.00,VWS V14.01,2013-06-18 01:25:00,
2013-06-17 18:30:00,68.3,52.5,29.98,WSW,257,9.0,10.0,57,0.00,,---,0.00,125.00,VWS V14.01,2013-06-18 01:30:00,
2013-06-17 18:35:00,68.2,52.9,29.98,West,267,10.0,10.0,58,0.00,,---,0.00,90.00,VWS V14.01,2013-06-18 01:35:00,
2013-06-17 18:40:00,68.0,52.7,29.99,West,260,1.0,11.0,58,0.00,,---,0.00,90.00,VWS V14.01,2013-06-18 01:40:00,
2013-06-17 18:45:00,67.8,52.5,29.99,West,275,5.0,11.0,58,0.00,,---,0.00,100.00,VWS V14.01,2013-06-18 01:45:00,
2013-06-17 18:50:00,67.7,53.3,29.99,WNW,286,1.0,11.0,60,0.00,,---,0.00,111.00,VWS V14.01,2013-06-18 01:50:00,
2013-06-17 18:55:00,67.5,53.1,29.99,WSW,254,3.0,12.0,60,0.00,,---,0.00,104.00,VWS V14.01,2013-06-18 01:55:00,
2013-06-17 19:00:00,67.2,53.3,29.99,SW,236,4.0,12.0,61,0.00,,---,0.00,81.00,VWS V14.01,2013-06-18 02:00:00,
2013-06-17 19:05:00,66.9,53.9,29.99,West,265,5.0,12.0,63,0.00,,---,0.00,93.00,VWS V14.01,2013-06-18 02:05:00,
2013-06-17 19:10:00,66.4,54.3,30.00,West,278,7.0,17.0,65,0.00,,---,0.00,79.00,VWS V14.01,2013-06-18 02:10:00,
2013-06-17 19:15:00,65.7,54.0,30.00,West,279,6.0,11.0,66,0.00,,---,0.00,113.00,VWS V14.01,2013-06-18 02:15:00,
2013-06-17 19:20:00,65.2,54.4,30.00,WSW,254,10.0,13.0,68,0.00,,---,0.00,125.00,VWS V14.01,2013-06-18 02:20:00,
2013-06-17 19:25:00,64.7,54.3,30.00,West,278,3.0,11.0,69,0.00,,---,0.00,104.00,VWS V14.01,2013-06-18 02:25:00,
2013-06-17 19:30:00,64.4,54.4,30.00,WNW,302,7.0,13.0,70,0.00,,---,0.00,107.00,VWS V14.01,2013-06-18 02:30:00,
2013-06-17 19:35:00,64.1,53.7,30.00,West,275,9.0,14.0,69,0.00,,---,0.00,111.00,VWS V14.01,2013-06-18 02:35:00,
2013-06-17 19:40:00,63.8,53.8,30.01,West,277,7.0,16.0,70,0.00,,---,0.00,127.00,VWS V14.01,2013-06-18 02:40:00,
2013-06-17 19:45:00,63.5,53.5,30.01,West,281,10.0,16.0,70,0.00,,---,0.00,88.00,VWS V14.01,2013-06-18 02:45:00,
2013-06-17 19:50:00,63.1,53.6,30.01,West,281,9.0,16.0,71,0.00,,---,0.00,86.00,VWS V14.01,2013-06-18 02:50:00,
2013-06-17 19:55:00,62.8,53.3,30.01,WNW,282,7.0,13.0,71,0.00,,---,0.00,63.00,VWS V14.01,2013-06-18 02:55:00,
2013-06-17 20:00:00,62.4,53.3,30.01,WNW,301,6.0,15.0,72,0.00,,---,0.00,39.00,VWS V14.01,2013-06-18 03:00:00,
2013-06-17 20:05:00,62.0,52.9,30.01,WNW,285,6.0,14.0,72,0.00,,---,0.00,32.00,VWS V14.01,2013-06-18 03:05:00,
2013-06-17 20:10:00,61.8,53.1,30.02,West,267,11.0,14.0,73,0.00,,---,0.00,19.00,VWS V14.01,2013-06-18 03:10:00,
2013-06-17 20:15:00,61.5,52.8,30.02,WSW,248,5.0,12.0,73,0.00,,---,0.00,14.00,VWS V14.01,2013-06-18 03:15:00,
2013-06-17 20:20:00,61.3,53.0,30.02,West,272,5.0,12.0,74,0.00,,---,0.00,12.00,VWS V14.01,2013-06-18 03:20:00,
2013-06-17 20:25:00,61.1,53.1,30.02,West,271,5.0,10.0,75,0.00,,---,0.00,14.00,VWS V14.01,2013-06-18 03:25:00,
2013-06-17 20:30:00,61.0,53.0,30.02,WNW,292,5.0,10.0,75,0.00,,---,0.00,11.00,VWS V14.01,2013-06-18 03:30:00,
2013-06-17 20:35:00,60.8,52.8,30.02,West,259,3.0,11.0,75,0.00,,---,0.00,12.00,VWS V14.01,2013-06-18 03:35:00,
2013-06-17 20:40:00,60.8,52.8,30.02,West,260,4.0,11.0,75,0.00,,---,0.00,7.00,VWS V14.01,2013-06-18 03:40:00,
2013-06-17 20:45:00,60.7,52.7,30.02,WNW,287,6.0,7.0,75,0.00,,---,0.00,7.00,VWS V14.01,2013-06-18 03:45:00,
2013-06-17 20:50:00,60.7,53.1,30.02,West,278,3.0,7.0,76,0.00,,---,0.00,5.00,VWS V14.01,2013-06-18 03:50:00,
2013-06-17 20:55:00,60.5,52.9,30.02,WNW,284,1.0,5.0,76,0.00,,---,0.00,0.00,VWS V14.01,2013-06-18 03:55:00,
2013-06-17 21:00:00,60.4,52.8,30.03,West,268,4.0,7.0,76,0.00,,---,0.00,0.00,VWS V14.01,2013-06-18 04:00:00,
2013-06-17 21:01:00,60.4,52.8,30.03,West,259,4.0,4.0,76,0.00,,---,0.00,0.00,VWS V14.01,2013-06-18 04:01:00,
2013-06-17 21:06:00,60.4,52.8,30.03,WSW,257,2.0,5.0,76,0.00,,---,0.00,0.00,VWS V14.01,2013-06-18 04:06:00,
2013-06-17 21:10:00,60.3,52.3,30.03,West,259,2.0,7.0,75,0.00,,---,0.00,0.00,VWS V14.01,2013-06-18 04:10:00,
2013-06-17 21:11:00,60.3,52.3,30.03,West,277,1.0,4.0,75,0.00,,---,0.00,0.00,VWS V14.01,2013-06-18 04:11:00,
2013-06-17 21:16:00,60.2,52.3,30.03,WSW,238,1.0,7.0,75,0.00,,---,0.00,0.00,VWS V14.01,2013-06-18 04:16:00,
2013-06-17 21:20:00,60.2,52.6,30.03,WSW,250,2.0,7.0,76,0.00,,---,0.00,0.00,VWS V14.01,2013-06-18 04:20:00,
2013-06-17 21:21:00,60.2,52.6,30.03,WSW,251,2.0,3.0,76,0.00,,---,0.00,0.00,VWS V14.01,2013-06-18 04:21:00,
2013-06-17 21:26:00,60.1,52.2,30.03,WSW,248,0.0,6.0,75,0.00,,---,0.00,0.00,VWS V14.01,2013-06-18 04:26:00,
2013-06-17 21:30:00,60.1,52.5,30.04,WSW,248,0.0,6.0,76,0.00,,---,0.00,0.00,VWS V14.01,2013-06-18 04:30:00,
2013-06-17 21:31:00,60.1,52.5,30.04,WSW,248,1.0,1.0,76,0.00,,---,0.00,0.00,VWS V14.01,2013-06-18 04:31:00,
2013-06-17 21:36:00,60.0,52.4,30.04,WSW,248,0.0,2.0,76,0.00,,---,0.00,0.00,VWS V14.01,2013-06-18 04:36:00,
2013-06-17 21:40:00,60.0,52.4,30.04,WSW,248,0.0,2.0,76,0.00,,---,0.00,0.00,VWS V14.01,2013-06-18 04:40:00,
2013-06-17 21:41:00,60.0,52.4,30.04,WSW,248,0.0,0.0,76,0.00,,---,0.00,0.00,VWS V14.01,2013-06-18 04:41:00,
2013-06-17 21:46:00,59.9,52.0,30.04,WSW,248,0.0,1.0,75,0.00,,---,0.00,0.00,VWS V14.01,2013-06-18 04:46:00,
2013-06-17 21:50:00,59.9,52.0,30.04,WSW,248,0.0,1.0,75,0.00,,---,0.00,0.00,VWS V14.01,2013-06-18 04:50:00,
2013-06-17 21:51:00,59.9,52.0,30.04,WSW,248,0.0,0.0,75,0.00,,---,0.00,0.00,VWS V14.01,2013-06-18 04:51:00,
2013-06-17 21:56:00,59.8,52.2,30.04,WSW,248,3.0,3.0,76,0.00,,---,0.00,0.00,VWS V14.01,2013-06-18 04:56:00,
2013-06-17 22:00:00,59.7,52.1,30.04,WSW,248,4.0,4.0,76,0.00,,---,0.00,0.00,VWS V14.01,2013-06-18 05:00:00,
2013-06-17 22:01:00,59.7,52.1,30.04,WSW,248,2.0,4.0,76,0.00,,---,0.00,0.00,VWS V14.01,2013-06-18 05:01:00,
2013-06-17 22:06:00,59.5,51.9,30.04,WSW,248,0.0,4.0,76,0.00,,---,0.00,0.00,VWS V14.01,2013-06-18 05:06:00,
2013-06-17 22:10:00,59.3,51.8,30.04,WSW,248,0.0,4.0,76,0.00,,---,0.00,0.00,VWS V14.01,2013-06-18 05:10:00,
2013-06-17 22:11:00,59.3,51.8,30.04,WSW,248,0.0,0.0,76,0.00,,---,0.00,0.00,VWS V14.01,2013-06-18 05:11:00,
2013-06-17 22:16:00,59.3,52.1,30.05,WSW,248,0.0,0.0,77,0.00,,---,0.00,0.00,VWS V14.01,2013-06-18 05:16:00,
2013-06-17 22:20:00,59.3,52.1,30.05,WSW,248,0.0,0.0,77,0.00,,---,0.00,0.00,VWS V14.01,2013-06-18 05:20:00,
2013-06-17 22:21:00,59.3,52.1,30.05,WSW,248,0.0,0.0,77,0.00,,---,0.00,0.00,VWS V14.01,2013-06-18 05:21:00,
2013-06-17 22:26:00,59.3,53.1,30.05,WSW,248,0.0,0.0,80,0.00,,---,0.00,0.00,VWS V14.01,2013-06-18 05:26:00,
2013-06-17 22:30:00,59.1,51.9,30.05,WSW,248,0.0,1.0,77,0.00,,---,0.00,0.00,VWS V14.01,2013-06-18 05:30:00,
2013-06-17 22:31:00,59.2,52.0,30.05,WSW,248,0.0,0.0,77,0.00,,---,0.00,0.00,VWS V14.01,2013-06-18 05:31:00,
2013-06-17 22:36:00,59.1,51.9,30.04,WSW,248,0.0,0.0,77,0.00,,---,0.00,0.00,VWS V14.01,2013-06-18 05:36:00,
2013-06-17 22:40:00,59.2,52.3,30.04,WSW,248,0.0,0.0,78,0.00,,---,0.00,0.00,VWS V14.01,2013-06-18 05:40:00,
2013-06-17 22:41:00,59.2,52.3,30.04,WSW,248,0.0,0.0,78,0.00,,---,0.00,0.00,VWS V14.01,2013-06-18 05:41:00,
2013-06-17 22:46:00,59.2,52.3,30.04,WSW,248,0.0,0.0,78,0.00,,---,0.00,0.00,VWS V14.01,2013-06-18 05:46:00,
2013-06-17 22:50:00,59.1,52.3,30.04,WSW,248,0.0,1.0,78,0.00,,---,0.00,0.00,VWS V14.01,2013-06-18 05:50:00,
2013-06-17 22:51:00,59.1,52.3,30.04,WSW,248,0.0,0.0,78,0.00,,---,0.00,0.00,VWS V14.01,2013-06-18 05:51:00,
2013-06-17 22:56:00,59.1,52.3,30.04,WSW,248,0.0,0.0,78,0.00,,---,0.00,0.00,VWS V14.01,2013-06-18 05:56:00,
2013-06-17 23:00:00,59.0,52.2,30.03,WSW,248,0.0,0.0,78,0.00,,---,0.00,0.00,VWS V14.01,2013-06-18 06:00:00,
2013-06-17 23:01:00,59.0,52.2,30.03,WSW,248,0.0,0.0,78,0.00,,---,0.00,0.00,VWS V14.01,2013-06-18 06:01:00,
2013-06-17 23:06:00,59.0,52.2,30.03,WSW,248,0.0,0.0,78,0.00,,---,0.00,0.00,VWS V14.01,2013-06-18 06:06:00,
2013-06-17 23:10:00,59.0,52.5,30.03,WSW,248,0.0,0.0,79,0.00,,---,0.00,0.00,VWS V14.01,2013-06-18 06:10:00,
2013-06-17 23:11:00,58.9,52.4,30.04,WSW,248,0.0,0.0,79,0.00,,---,0.00,0.00,VWS V14.01,2013-06-18 06:11:00,
2013-06-17 23:16:00,58.9,52.4,30.03,WSW,248,0.0,1.0,79,0.00,,---,0.00,0.00,VWS V14.01,2013-06-18 06:16:00,
2013-06-17 23:20:00,58.7,52.2,30.03,WSW,248,0.0,1.0,79,0.00,,---,0.00,0.00,VWS V14.01,2013-06-18 06:20:00,
2013-06-17 23:21:00,58.8,52.3,30.03,WSW,248,0.0,0.0,79,0.00,,---,0.00,0.00,VWS V14.01,2013-06-18 06:21:00,
2013-06-17 23:26:00,58.7,52.6,30.03,SSW,196,2.0,3.0,80,0.00,,---,0.00,0.00,VWS V14.01,2013-06-18 06:26:00,
2013-06-17 23:30:00,58.5,52.0,30.03,SSW,196,0.0,3.0,79,0.00,,---,0.00,0.00,VWS V14.01,2013-06-18 06:30:00,
2013-06-17 23:31:00,58.5,52.0,30.03,SSW,196,0.0,0.0,79,0.00,,---,0.00,0.00,VWS V14.01,2013-06-18 06:31:00,
2013-06-17 23:36:00,58.4,52.3,30.03,SSW,196,0.0,0.0,80,0.00,,---,0.00,0.00,VWS V14.01,2013-06-18 06:36:00,
2013-06-17 23:40:00,58.2,52.1,30.03,SSW,196,3.0,3.0,80,0.00,,---,0.00,0.00,VWS V14.01,2013-06-18 06:40:00,
2013-06-17 23:41:00,58.2,52.1,30.03,SSW,196,2.0,3.0,80,0.00,,---,0.00,0.00,VWS V14.01,2013-06-18 06:41:00,
2013-06-17 23:46:00,58.0,51.9,30.03,SSW,196,0.0,3.0,80,0.00,,---,0.00,0.00,VWS V14.01,2013-06-18 06:46:00,
2013-06-17 23:50:00,57.9,52.1,30.03,SSW,196,4.0,4.0,81,0.00,,---,0.00,0.00,VWS V14.01,2013-06-18 06:50:00,
2013-06-17 23:51:00,57.9,52.1,30.03,SSW,196,3.0,4.0,81,0.00,,---,0.00,0.00,VWS V14.01,2013-06-18 06:51:00,
2013-06-17 23:56:00,57.7,51.9,30.03,SSW,196,0.0,4.0,81,0.00,,---,0.00,0.00,VWS V14.01,2013-06-18 06:56:00,